Flag for U.S.A. Weather past 2 weeks in Hollywood, Florida, U.S.A.

Now
86 °F

Partly sunny.


Feels Like: 96 °F
Forecast: 77 / 89 °F
Wind: 7 mph from Southeast

Location: Fort Lauderdale / Hollywood International Airport

Current Time: Aug 4, 2015 at 10:33:16 AM

Latest Report: Aug 4, 2015 at 9:53 AM


Visibility: 10 mi

Pressure: 30.04 "Hg

Humidity: 72%

Dew point: 76 °F

Location of HollywoodLocation

Historic Weather in Hollywood — Graph

°F

Hollywood temperature yesterday

Maximum temperature yesterday: 90 °F (at 12:53 PM)
Minimum temperature yesterday: 77 °F (at 2:53 AM)
Average temperature yesterday: 81 °F

Past Weeks' High & Low Weather Summary

 TemperatureHumidityPressure
High95 °F (Jul 24, 2:53 PM)100% (Jul 25, 7:53 PM)30.06 "Hg (Jul 25, 7:53 PM)
Low75 °F (Aug 2, 6:53 PM)44% (Jul 24, 2:53 PM)29.88 "Hg (Jul 26, 4:53 AM)
Average83 °F76%29.99 "Hg
* Reported Jul 20 8:53 AM — Aug 4 8:53 AM, Hollywood, Weather by CustomWeather, © 2015

Note: Actual official high and low records may vary slightly from our data, if they occured in-between our weather recording intervals... More about our weather records

Advertising

Hollywood weather history for previous 24 hours

 ConditionsComfort  
Time TempWeatherWind HumidityBarometerVisibility
8:53 AM
Tue, Aug 4
84 °FPassing clouds.3 mph80%30.04 "Hg10 mi
7:53 AM82 °FPassing clouds.No wind85%30.03 "Hg10 mi
6:53 AM79 °FPassing clouds.No wind90%30.02 "Hg10 mi
5:53 AM79 °FPassing clouds.No wind88%30.01 "Hg10 mi
4:53 AM79 °FPassing clouds.No wind88%30.00 "Hg10 mi
3:53 AM78 °FClear.No wind87%30.00 "Hg10 mi
2:53 AM79 °FClear.3 mph84%30.01 "Hg10 mi
1:53 AM78 °FClear.3 mph84%30.01 "Hg10 mi
12:53 AM79 °FPassing clouds.No wind84%30.03 "Hg10 mi
11:53 PM
Mon, Aug 3
79 °FPassing clouds.No wind88%30.03 "Hg10 mi
10:53 PM79 °FPassing clouds.3 mph84%30.03 "Hg10 mi
9:53 PM79 °FOvercast.No wind82%30.01 "Hg10 mi
8:53 PM79 °FOvercast.No wind82%30.00 "Hg10 mi
7:53 PM80 °FPartly sunny.6 mph79%29.98 "Hg10 mi
6:53 PM81 °FPartly sunny.5 mph77%29.98 "Hg10 mi
5:53 PM80 °FBroken clouds.5 mph79%29.99 "Hg10 mi
4:53 PM80 °FBroken clouds.10 mph76%29.99 "Hg10 mi
3:53 PM79 °FBroken clouds.12 mph79%29.97 "Hg10 mi
2:53 PM81 °FPartly sunny.15 mph72%30.00 "Hg10 mi
1:53 PM89 °FPartly sunny.18 mph63%29.98 "Hg10 mi
12:53 PM90 °FOvercast.7 mph50%30.00 "Hg10 mi
11:53 AM88 °FBroken clouds.12 mph61%30.01 "Hg10 mi
10:53 AM87 °FBroken clouds.6 mph63%30.01 "Hg10 mi
Weather by CustomWeather, © 2015

See weather overviewHow to use our weather pages